SCP
-0 -0 -0 0 0 0 0 0 -0 -0 -0 0 0 0 0 0 0 0 0 0 0 0 0 0 0 0 0 0 0 0 0 0 0 0 0 0 0 0 0 0 0 0 0
-0 -0 0 0 0 0 0 0 0 0 -0 0 0 -0 0 0 0 0 0 0 0 0 0 0 0 0 0 0 0 0 0 0 0 0 0 0 0 0 0 0 0 0 0
-0 -0 0 0 0 0 0 0 0 0 0 0 0 0 0 0 0 0 0 0 0 0 0 0 0 0 0 0 0 0 0 0 0 0 0 0 0 0 0 0 0 0 0
-0 0 0 0 0 0 0 0 0 0 0 0 0 0 0 0 0 0 0 0 0 0 0 0 0 0 0 0 0 0 0 0 0 0 0 0 0 0 0 0 0 0 0
0 0 0 0 0 0 0 0 0 0 0 0 0 0 0 0 0 0 0 0 0 0 0 0 0 0 0 0 0 0 0 0 0 0 0 0 0 0 0 0 0 0 0
0 -0 0 -0 -0 -0 -0 -0 -0 0 0 0 0 0 0 0 0 0 0 0 0 0 0 0 0 0 0 0 0 0 0 0 0 0 0 0 0 0 0 0 0 0 0
0 0 0 -0 -0 -0 -0 0 0 0 0 0 0 0 0 0 0 0 0 0 0 0 0 0 0 0 0 0 0 0 0 0 0 0 0 0 0 0 0 0 0 0 0
0 0 0 0 -0 -0 0 0 0 0 0 0 0 0 -0 0 0 0 0 0 0 0 0 0 0 0 0 0 0 0 0 0 0 0 0 0 0 -0 0 0 0 0 -0
0 -0 -0 0 0 0 0 0 0 0 0 -0 -0 -0 0 0 0 0 0 0 0 0 0 0 0 0 0 0 0 0 0 0 -0 -0 0 0 0 -0 -0 0 0 0 0
0 0 -0 0 0 0 0 0 0 0 0 0 0 0 0 -0 -0 0 0 0 0 0 0 0 0 0 0 0 0 0 -0 -0 0 0 0 0 0 0 -0 0 0 0 0
0 0 0 0 0 -0 0 0 0 0 0 0 -0 -0 -0 -0 -0 0 0 0 0 0 0 0 0 -0 -0 -0 -0 -0 0 0 0 0 0 0 0 0 0 0 0 0 0
0 0 0 0 0 0 0 0 0 0 0 -0 -0 -0 -0 -0 0 0 0 0 0 0 0 -0 -0 -0 -0 -0 -0 0 0 0 0 0 0 0 0 0 0 0 0 0 0
0 0 0 0 0 0 0 0 0 0 0 0 0 0 -0 0 0 0 -0 -0 -0 -0 0 -0 -0 -0 -0 0 0 0 0 0 0 0 0 0 0 0 0 0 0 0 0
0 -0 0 0 0 0 -0 -0 0 0 0 0 0 0 0 0 0 0 -0 -0 -0 -0 -0 0 -0 0 0 0 0 0 0 0 0 0 0 0 0 0 0 0 0 0 0
0 0 0 0 0 -0 -0 -0 -0 -0 -0 0 0 0 0 0 0 0 0 -0 -0 0 0 0 0 0 0 0 0 0 0 0 0 0 0 0 0 0 0 0 0 0 0
0 0 0 0 0 0 0 -0 -0 -0 -0 0 0 0 0 0 0 -0 0 -0 -0 -0 0 0 0 0 0 0 0 0 0 0 0 0 0 0 0 0 0 0 0 0 0
0 0 0 0 0 0 0 0 -0 -0 -0 0 0 0 0 0 -0 0 0 0 0 0 0 0 0 0 0 0 0 0 0 0 0 0 0 0 0 0 0 0 0 0 0
0 0 0 0 0 0 0 0 0 0 0 0 0 -0 -0 0 0 0 0 0 0 0 0 0 0 0 0 0 0 0 0 0 0 0 0 0 0 0 0 0 0 0 0
0 0 0 0 0 0 0 0 0 0 0 0 0 0 0 0 0 0 0 0 0 0 0 0 0 0 0 0 0 0 0 0 0 0 0 0 0 0 0 0 0 0 0
0 0 0 0 0 0 0 0 0 0 0 0 0 0 0 0 0 0 0 0 0 0 0 0 0 0 0 0 0 0 0 0 0 0 0 0 0 0 0 0 0 0 0
0 0 0 0 0 0 0 0 0 0 0 0 0 0 0 0 0 0 0 0 0 0 0 0 0 0 0 0 0 0 0 0 0 0 0 0 0 0 0 0 0 0 0
0 0 0 0 0 0 0 0 0 0 0 0 0 0 0 0 0 0 0 0 0 0 0 0 0 0 0 0 0 0 0 0 0 0 0 0 0 0 0 0 0 0 0
0 0 0 0 0 0 0 0 0 0 0 0 0 0 0 0 0 0 0 0 0 0 0 0 0 0 0 0 0 0 0 0 0 0 0 0 0 0 0 0 0 0 0
0 0 0 0 0 0 0 0 0 0 0 0 0 0 0 0 0 0 0 0 0 0 0 0 0 0 0 0 0 0 0 0 0 0 0 0 0 0 0 0 0 0 0
0 0 0 0 0 0 0 0 0 0 0 0 0 0 0 0 0 0 0 0 0 0 0 -0 0 0 0 0 0 0 0 0 0 0 0 0 0 0 0 0 0 0 0
0 0 0 0 0 0 0 0 0 0 0 0 0 0 0 0 0 0 0 0 0 0 0 -0 0 0 0 0 0 0 0 0 0 0 0 0 0 0 0 0 0 0 0
Wind_Speed_500mb
61 57 58 60 62 54 50 47 51 40 27 12 7 10 10 16 18 16 20 15 15 14 12 13 17 20 25 28 29 32 37 42 38 28 31 39 46 53 57 59 60 62 60
68 71 60 56 60 52 47 44 35 32 26 14 7 12 8 9 6 4 3 5 2 2 9 12 19 25 31 30 29 30 32 34 38 44 51 60 65 71 61 50 45 43 43
68 81 72 67 52 58 48 43 41 36 27 19 12 19 19 13 13 7 3 9 17 21 22 20 22 27 29 30 34 38 41 45 49 51 51 49 46 37 39 43 44 41 38
79 74 70 72 60 59 53 51 43 40 26 29 18 24 26 17 9 10 15 15 15 23 29 34 37 37 38 39 45 50 55 57 48 42 39 33 32 33 35 38 36 32 33
76 69 70 66 58 55 50 50 44 40 38 33 24 28 16 9 2 8 12 13 16 25 27 28 28 31 39 42 46 48 46 32 34 36 31 29 29 30 29 29 33 32 26
68 72 55 64 66 67 70 56 48 42 48 41 29 20 17 17 21 24 29 27 24 19 19 23 27 28 33 32 30 24 18 28 33 30 27 28 31 32 32 33 30 30 30
69 67 72 72 71 68 58 42 24 20 8 36 45 38 30 33 26 33 33 15 10 14 21 26 31 29 31 36 25 14 17 24 24 27 29 30 35 33 36 35 23 22 22
64 64 68 67 56 50 39 18 13 21 22 21 17 18 23 28 32 40 9 6 5 13 18 21 28 30 38 28 21 18 15 17 23 23 23 21 20 19 18 21 16 18 16
60 74 77 61 43 22 12 20 27 27 28 23 22 21 25 33 38 29 4 8 12 15 19 22 26 29 27 20 19 15 15 18 17 22 22 20 17 11 13 15 14 14 22
55 66 70 41 39 37 32 33 33 30 21 17 23 27 32 40 45 32 25 19 17 18 19 23 28 28 15 15 20 25 20 17 23 26 26 23 15 4 5 8 15 15 18
52 57 55 24 47 36 21 28 31 34 29 28 33 34 40 48 42 39 40 29 27 22 22 25 26 26 23 19 22 21 20 23 27 30 22 18 16 10 3 1 7 9 9
53 47 40 37 32 38 43 30 29 29 35 40 32 33 41 45 28 38 44 39 38 37 33 26 23 22 21 19 20 19 17 25 33 32 28 27 21 20 16 10 7 4 8
36 38 38 38 39 40 30 22 26 32 27 31 19 26 38 32 32 40 41 47 40 40 42 42 24 23 23 21 20 20 28 37 32 30 32 30 28 24 23 21 14 10 5
26 40 30 30 34 41 47 40 29 23 20 18 15 29 35 45 46 42 40 39 38 38 40 38 41 40 31 34 30 31 33 33 33 31 33 29 27 25 23 13 11 11 10
23 27 24 27 31 39 47 51 50 51 38 33 38 40 43 48 52 50 47 41 38 34 33 33 36 40 37 33 32 30 32 33 34 30 31 28 31 28 28 28 31 31 31
25 25 25 24 17 25 34 42 50 57 50 46 47 46 49 45 40 41 43 45 43 39 39 41 39 37 36 37 36 35 37 37 35 35 33 30 30 28 26 23 20 22 24
29 31 32 21 12 14 25 33 40 43 50 50 44 46 46 43 42 42 43 43 44 45 49 48 47 45 43 39 39 41 40 36 38 42 37 33 32 35 35 35 35 33 30
24 29 28 27 25 22 20 30 33 32 36 36 34 35 35 37 40 45 43 47 51 53 54 55 53 50 46 43 42 43 42 40 34 31 34 33 35 36 36 36 37 36 35
30 26 27 18 18 22 33 34 34 33 32 32 33 33 30 32 40 45 46 49 52 52 51 50 47 47 50 45 41 37 38 36 42 40 36 34 35 44 48 39 38 38 41
23 29 20 15 20 32 35 35 35 37 34 32 37 32 31 34 45 44 47 47 54 56 53 48 43 44 49 53 51 41 43 47 44 53 47 44 51 50 40 39 46 46 38
39 18 12 22 32 32 33 35 31 30 36 37 36 36 33 33 41 39 40 43 43 44 44 47 50 52 44 42 39 42 36 32 28 27 34 36 34 35 36 34 28 27 35
15 19 27 27 30 32 34 34 29 29 36 37 42 39 37 33 34 35 38 37 38 45 49 46 43 45 42 39 39 41 46 29 24 24 25 26 25 21 32 24 24 24 28
15 24 25 31 33 34 35 31 30 31 39 40 45 46 52 43 38 37 38 34 31 36 46 44 44 45 42 40 41 49 52 49 42 28 26 23 22 20 25 24 24 24 24
19 24 25 27 31 32 32 29 30 36 37 38 37 43 44 45 42 35 32 35 34 30 34 38 40 43 40 39 39 37 38 39 37 37 30 21 20 21 19 18 19 19 23
24 26 23 26 32 30 29 27 26 31 35 33 33 37 33 45 42 36 33 30 33 34 35 34 35 37 37 39 40 39 31 34 33 27 27 26 20 19 16 16 18 19 21
31 27 26 26 26 27 26 24 21 23 27 28 27 29 30 35 40 42 35 35 32 31 32 31 31 32 31 34 36 37 32 32 34 36 24 22 18 16 17 14 19 20 23
Wind_Direction_500mb
358 357 352 348 346 333 329 325 332 341 345 13 39 73 75 74 72 65 49 37 17 356 339 316 289 289 286 287 282 280 283 287 294 290 286 288 286 290 286 281 285 283 281
344 343 342 340 338 333 330 315 320 330 335 345 53 62 79 113 100 81 17 320 58 80 302 285 277 283 287 282 286 284 286 292 300 302 298 300 300 302 305 305 307 305 299
340 339 335 338 333 330 327 321 304 310 299 291 267 245 229 191 173 154 257 294 303 289 299 309 314 308 302 305 309 307 306 304 304 308 311 311 311 310 311 308 304 303 298
339 340 341 341 336 327 324 330 314 298 283 276 246 184 177 185 222 274 280 290 319 323 318 312 305 306 313 315 316 316 314 309 310 313 316 321 316 310 309 312 312 317 306
339 338 339 338 343 344 329 330 318 313 271 256 236 217 181 145 132 13 347 337 324 311 306 312 316 319 314 312 311 312 315 331 336 332 330 322 315 318 322 323 322 316 332
335 338 334 331 331 331 331 327 324 320 305 236 194 149 97 62 21 355 341 328 322 302 305 323 322 325 327 334 329 329 330 343 337 332 327 324 320 320 316 317 317 320 333
341 340 339 335 329 330 337 341 352 8 115 75 64 60 32 20 3 355 340 337 341 332 332 334 336 342 338 333 340 337 348 343 335 330 327 325 316 316 312 315 312 317 308
344 345 341 339 341 346 353 357 62 90 84 64 52 38 24 22 8 358 346 107 3 349 347 344 338 338 335 348 357 347 359 340 339 335 330 334 329 328 333 338 326 314 323
352 352 348 346 344 348 38 64 57 36 47 65 64 61 45 24 359 6 303 332 339 339 347 342 341 332 351 359 359 27 31 24 36 10 349 351 326 337 359 17 41 32 30
346 356 1 358 53 26 58 67 68 58 40 61 62 42 30 15 11 30 38 35 45 37 358 355 351 352 22 17 42 56 54 42 20 5 2 353 349 358 13 3 51 40 31
346 355 359 26 5 17 35 54 48 41 32 64 44 35 21 18 23 36 36 39 50 34 19 6 9 24 42 44 68 62 40 29 18 12 15 7 14 16 300 357 45 11 340
356 10 23 26 37 55 60 47 47 56 67 50 41 32 20 17 36 44 35 47 53 46 33 22 17 26 48 65 71 55 45 34 25 19 36 36 37 37 35 55 19 7 331
15 32 46 38 55 58 46 48 59 82 83 85 73 37 26 47 52 51 63 59 52 47 45 39 48 63 82 76 82 64 55 36 35 38 35 42 46 60 56 63 77 59 47
39 40 63 57 46 57 45 43 42 40 45 64 60 41 65 64 60 54 51 55 52 54 56 57 58 64 67 71 74 64 42 42 42 45 42 50 56 56 58 71 38 40 74
56 66 54 54 66 42 40 46 45 49 56 70 73 81 69 62 52 46 42 43 49 56 61 69 78 74 74 74 69 52 42 43 42 49 61 58 57 57 50 55 64 72 77
56 56 46 33 31 39 39 54 59 52 60 75 82 72 59 52 49 49 48 56 60 60 61 63 61 58 55 55 55 44 48 48 53 59 60 57 57 53 56 56 62 73 80
69 48 22 360 6 58 54 58 62 59 55 67 71 65 56 52 49 53 63 64 61 62 61 57 54 53 51 51 57 55 55 59 61 56 64 63 60 65 64 65 70 74 77
59 43 53 74 105 95 82 79 67 64 62 63 65 66 63 54 51 59 65 67 63 63 62 58 58 57 55 59 58 58 63 54 54 57 58 63 60 65 67 69 72 76 83
55 46 101 103 78 80 90 81 76 68 63 63 69 63 63 63 61 61 62 57 63 63 63 61 60 59 56 55 55 54 49 55 63 61 63 64 69 75 71 70 77 79 85
37 115 118 74 67 90 86 89 79 70 73 60 59 65 67 75 65 61 60 59 72 66 60 57 53 45 60 60 55 63 70 73 72 67 70 72 68 74 65 61 66 73 80
124 116 66 59 92 89 91 91 79 70 56 73 66 56 57 70 69 69 60 70 70 58 64 59 61 58 56 45 52 59 59 56 56 57 69 65 56 63 65 70 61 62 66
145 68 48 83 92 85 98 89 81 73 66 76 71 63 62 60 71 72 67 72 65 60 62 60 55 47 44 47 46 38 42 42 31 22 23 28 32 51 74 69 74 85 80
56 37 56 81 89 93 100 93 91 69 86 81 72 68 60 60 68 70 72 72 70 56 57 52 47 42 43 45 44 44 40 34 33 35 30 46 51 60 69 80 77 82 88
42 46 73 87 94 98 103 97 88 81 85 72 67 61 56 66 63 66 64 66 65 63 52 50 42 42 46 48 42 39 34 32 34 34 42 49 58 74 81 88 75 89 95
63 68 75 80 104 104 108 105 100 84 72 72 67 61 65 63 60 58 67 72 58 61 56 47 44 42 43 39 36 32 28 33 34 33 38 47 61 69 74 99 98 107 105
75 70 80 93 101 104 109 107 108 91 83 76 69 56 61 62 59 57 63 60 58 54 50 47 40 32 29 28 26 25 30 29 34 41 43 43 47 53 64 99 119 117 105
Wind_Speed_850mb
61 57 58 60 62 54 50 47 51 40 27 12 7 10 10 16 18 16 20 15 15 14 12 13 17 20 25 28 29 32 37 42 38 28 31 39 46 53 57 59 60 62 60
68 71 60 56 60 52 47 44 35 32 26 14 7 12 8 9 6 4 3 5 2 2 9 12 19 25 31 30 29 30 32 34 38 44 51 60 65 71 61 50 45 43 43
68 81 72 67 52 58 48 43 41 36 27 19 12 19 19 13 13 7 3 9 17 21 22 20 22 27 29 30 34 38 41 45 49 51 51 49 46 37 39 43 44 41 38
79 74 70 72 60 59 53 51 43 40 26 29 18 24 26 17 9 10 15 15 15 23 29 34 37 37 38 39 45 50 55 57 48 42 39 33 32 33 35 38 36 32 33
76 69 70 66 58 55 50 50 44 40 38 33 24 28 16 9 2 8 12 13 16 25 27 28 28 31 39 42 46 48 46 32 34 36 31 29 29 30 29 29 33 32 26
68 72 55 64 66 67 70 56 48 42 48 41 29 20 17 17 21 24 29 27 24 19 19 23 27 28 33 32 30 24 18 28 33 30 27 28 31 32 32 33 30 30 30
69 67 72 72 71 68 58 42 24 20 8 36 45 38 30 33 26 33 33 15 10 14 21 26 31 29 31 36 25 14 17 24 24 27 29 30 35 33 36 35 23 22 22
64 64 68 67 56 50 39 18 13 21 22 21 17 18 23 28 32 40 9 6 5 13 18 21 28 30 38 28 21 18 15 17 23 23 23 21 20 19 18 21 16 18 16
60 74 77 61 43 22 12 20 27 27 28 23 22 21 25 33 38 29 4 8 12 15 19 22 26 29 27 20 19 15 15 18 17 22 22 20 17 11 13 15 14 14 22
55 66 70 41 39 37 32 33 33 30 21 17 23 27 32 40 45 32 25 19 17 18 19 23 28 28 15 15 20 25 20 17 23 26 26 23 15 4 5 8 15 15 18
52 57 55 24 47 36 21 28 31 34 29 28 33 34 40 48 42 39 40 29 27 22 22 25 26 26 23 19 22 21 20 23 27 30 22 18 16 10 3 1 7 9 9
53 47 40 37 32 38 43 30 29 29 35 40 32 33 41 45 28 38 44 39 38 37 33 26 23 22 21 19 20 19 17 25 33 32 28 27 21 20 16 10 7 4 8
36 38 38 38 39 40 30 22 26 32 27 31 19 26 38 32 32 40 41 47 40 40 42 42 24 23 23 21 20 20 28 37 32 30 32 30 28 24 23 21 14 10 5
26 40 30 30 34 41 47 40 29 23 20 18 15 29 35 45 46 42 40 39 38 38 40 38 41 40 31 34 30 31 33 33 33 31 33 29 27 25 23 13 11 11 10
23 27 24 27 31 39 47 51 50 51 38 33 38 40 43 48 52 50 47 41 38 34 33 33 36 40 37 33 32 30 32 33 34 30 31 28 31 28 28 28 31 31 31
25 25 25 24 17 25 34 42 50 57 50 46 47 46 49 45 40 41 43 45 43 39 39 41 39 37 36 37 36 35 37 37 35 35 33 30 30 28 26 23 20 22 24
29 31 32 21 12 14 25 33 40 43 50 50 44 46 46 43 42 42 43 43 44 45 49 48 47 45 43 39 39 41 40 36 38 42 37 33 32 35 35 35 35 33 30
24 29 28 27 25 22 20 30 33 32 36 36 34 35 35 37 40 45 43 47 51 53 54 55 53 50 46 43 42 43 42 40 34 31 34 33 35 36 36 36 37 36 35
30 26 27 18 18 22 33 34 34 33 32 32 33 33 30 32 40 45 46 49 52 52 51 50 47 47 50 45 41 37 38 36 42 40 36 34 35 44 48 39 38 38 41
23 29 20 15 20 32 35 35 35 37 34 32 37 32 31 34 45 44 47 47 54 56 53 48 43 44 49 53 51 41 43 47 44 53 47 44 51 50 40 39 46 46 38
39 18 12 22 32 32 33 35 31 30 36 37 36 36 33 33 41 39 40 43 43 44 44 47 50 52 44 42 39 42 36 32 28 27 34 36 34 35 36 34 28 27 35
15 19 27 27 30 32 34 34 29 29 36 37 42 39 37 33 34 35 38 37 38 45 49 46 43 45 42 39 39 41 46 29 24 24 25 26 25 21 32 24 24 24 28
15 24 25 31 33 34 35 31 30 31 39 40 45 46 52 43 38 37 38 34 31 36 46 44 44 45 42 40 41 49 52 49 42 28 26 23 22 20 25 24 24 24 24
19 24 25 27 31 32 32 29 30 36 37 38 37 43 44 45 42 35 32 35 34 30 34 38 40 43 40 39 39 37 38 39 37 37 30 21 20 21 19 18 19 19 23
24 26 23 26 32 30 29 27 26 31 35 33 33 37 33 45 42 36 33 30 33 34 35 34 35 37 37 39 40 39 31 34 33 27 27 26 20 19 16 16 18 19 21
31 27 26 26 26 27 26 24 21 23 27 28 27 29 30 35 40 42 35 35 32 31 32 31 31 32 31 34 36 37 32 32 34 36 24 22 18 16 17 14 19 20 23
Wind_Direction_850mb
358 357 352 348 346 333 329 325 332 341 345 13 39 73 75 74 72 65 49 37 17 356 339 316 289 289 286 287 282 280 283 287 294 290 286 288 286 290 286 281 285 283 281
344 343 342 340 338 333 330 315 320 330 335 345 53 62 79 113 100 81 17 320 58 80 302 285 277 283 287 282 286 284 286 292 300 302 298 300 300 302 305 305 307 305 299
340 339 335 338 333 330 327 321 304 310 299 291 267 245 229 191 173 154 257 294 303 289 299 309 314 308 302 305 309 307 306 304 304 308 311 311 311 310 311 308 304 303 298
339 340 341 341 336 327 324 330 314 298 283 276 246 184 177 185 222 274 280 290 319 323 318 312 305 306 313 315 316 316 314 309 310 313 316 321 316 310 309 312 312 317 306
339 338 339 338 343 344 329 330 318 313 271 256 236 217 181 145 132 13 347 337 324 311 306 312 316 319 314 312 311 312 315 331 336 332 330 322 315 318 322 323 322 316 332
335 338 334 331 331 331 331 327 324 320 305 236 194 149 97 62 21 355 341 328 322 302 305 323 322 325 327 334 329 329 330 343 337 332 327 324 320 320 316 317 317 320 333
341 340 339 335 329 330 337 341 352 8 115 75 64 60 32 20 3 355 340 337 341 332 332 334 336 342 338 333 340 337 348 343 335 330 327 325 316 316 312 315 312 317 308
344 345 341 339 341 346 353 357 62 90 84 64 52 38 24 22 8 358 346 107 3 349 347 344 338 338 335 348 357 347 359 340 339 335 330 334 329 328 333 338 326 314 323
352 352 348 346 344 348 38 64 57 36 47 65 64 61 45 24 359 6 303 332 339 339 347 342 341 332 351 359 359 27 31 24 36 10 349 351 326 337 359 17 41 32 30
346 356 1 358 53 26 58 67 68 58 40 61 62 42 30 15 11 30 38 35 45 37 358 355 351 352 22 17 42 56 54 42 20 5 2 353 349 358 13 3 51 40 31
346 355 359 26 5 17 35 54 48 41 32 64 44 35 21 18 23 36 36 39 50 34 19 6 9 24 42 44 68 62 40 29 18 12 15 7 14 16 300 357 45 11 340
356 10 23 26 37 55 60 47 47 56 67 50 41 32 20 17 36 44 35 47 53 46 33 22 17 26 48 65 71 55 45 34 25 19 36 36 37 37 35 55 19 7 331
15 32 46 38 55 58 46 48 59 82 83 85 73 37 26 47 52 51 63 59 52 47 45 39 48 63 82 76 82 64 55 36 35 38 35 42 46 60 56 63 77 59 47
39 40 63 57 46 57 45 43 42 40 45 64 60 41 65 64 60 54 51 55 52 54 56 57 58 64 67 71 74 64 42 42 42 45 42 50 56 56 58 71 38 40 74
56 66 54 54 66 42 40 46 45 49 56 70 73 81 69 62 52 46 42 43 49 56 61 69 78 74 74 74 69 52 42 43 42 49 61 58 57 57 50 55 64 72 77
56 56 46 33 31 39 39 54 59 52 60 75 82 72 59 52 49 49 48 56 60 60 61 63 61 58 55 55 55 44 48 48 53 59 60 57 57 53 56 56 62 73 80
69 48 22 360 6 58 54 58 62 59 55 67 71 65 56 52 49 53 63 64 61 62 61 57 54 53 51 51 57 55 55 59 61 56 64 63 60 65 64 65 70 74 77
59 43 53 74 105 95 82 79 67 64 62 63 65 66 63 54 51 59 65 67 63 63 62 58 58 57 55 59 58 58 63 54 54 57 58 63 60 65 67 69 72 76 83
55 46 101 103 78 80 90 81 76 68 63 63 69 63 63 63 61 61 62 57 63 63 63 61 60 59 56 55 55 54 49 55 63 61 63 64 69 75 71 70 77 79 85
37 115 118 74 67 90 86 89 79 70 73 60 59 65 67 75 65 61 60 59 72 66 60 57 53 45 60 60 55 63 70 73 72 67 70 72 68 74 65 61 66 73 80
124 116 66 59 92 89 91 91 79 70 56 73 66 56 57 70 69 69 60 70 70 58 64 59 61 58 56 45 52 59 59 56 56 57 69 65 56 63 65 70 61 62 66
145 68 48 83 92 85 98 89 81 73 66 76 71 63 62 60 71 72 67 72 65 60 62 60 55 47 44 47 46 38 42 42 31 22 23 28 32 51 74 69 74 85 80
56 37 56 81 89 93 100 93 91 69 86 81 72 68 60 60 68 70 72 72 70 56 57 52 47 42 43 45 44 44 40 34 33 35 30 46 51 60 69 80 77 82 88
42 46 73 87 94 98 103 97 88 81 85 72 67 61 56 66 63 66 64 66 65 63 52 50 42 42 46 48 42 39 34 32 34 34 42 49 58 74 81 88 75 89 95
63 68 75 80 104 104 108 105 100 84 72 72 67 61 65 63 60 58 67 72 58 61 56 47 44 42 43 39 36 32 28 33 34 33 38 47 61 69 74 99 98 107 105
75 70 80 93 101 104 109 107 108 91 83 76 69 56 61 62 59 57 63 60 58 54 50 47 40 32 29 28 26 25 30 29 34 41 43 43 47 53 64 99 119 117 105